sat.trackr.live / text

‹ back to catalog

GALAPAGOS-UTE-SWSU

NORAD 67279 · 2025-313AH

PAYLOAD ACTIVE UNKNOWN

§ Identity

Operator
Country
TBD
Launch date
2025-12-28
Launch site
VOSTO
Launch vehicle
Mass (kg)
RCS (m²)

External: N2YO · Heavens-Above · Gunter

§ Orbital elements

Epoch: 2026-05-25T03:22:24.314016Z

Period
94.58 min
Inclination
97.3930°
Eccentricity
0.0015745
Mean motion
15.22467940 rev/d
Perigee alt
487.6 km
Apogee alt
509.2 km
Semi-major
6,876.5 km
B*
2.9170e-4
RAAN
220.1186°
Arg perigee
86.9593°
Mean anomaly
273.3445°
Rev number
2,244

§ Raw data

GALAPAGOS-UTE-SWSU1 67279U 25313AH  26145.14055919  .00006706  00000+0  29170-3 0  99972 67279  97.3930 220.1186 0015745  86.9593 273.3445 15.22467940 22446

JSON: /api/v1/satellites/67279 · /tle

For live sub-satellite position, see the globe view (requires WebGL).

§ Visibility from observer

Set your observer location to see the next 7 days of passes ≥ 10°. The values pass through the URL so the page stays shareable.

No JS? Fill the form by hand. The geolocation button needs JavaScript.

§ Radio — SatNOGS DB

ModeDescriptionDownlinkUplink
AFSK Mode U - AFSK 1143 Beacon TLM 437.050 MHz
FSK Mode U - FSK2k4 435.750 MHz
SSTV Mode U - SSTV 437.050 MHz

3 transmitters · refreshed weekly from db.satnogs.org